,

(GMT )
Maturin

Weather History for SVMT - September, 2013

Change the Weather History Date:

Sunday, September 22, 2013

  Actual Average Record
Temperature  
Mean Temperature 87 °F -  
Max Temperature 95 °F 88 °F 95 °F (2013)
Min Temperature 79 °F 75 °F 73 °F (2000)
Cooling Degree Days 22    
Growing Degree Days 37 (Base 50)    
Moisture  
Dew Point 68 °F    
Average Humidity 57    
Maximum Humidity 94    
Minimum Humidity 20    
Precipitation  
Precipitation 0.00 in - - ()
Sea Level Pressure  
Sea Level Pressure 29.86 in    
Wind  
Wind Speed 5 mph ()    
Max Wind Speed 12 mph    
Max Gust Speed -    
Visibility 7.0 miles    
Events      
Averages and records for this station are not official NWS values.
T = Trace of Precipitation, MM = Missing Value Source: Averaged Metar Reports

Daily Weather History Graph

Daily Weather History Graph

Search for Another Location

Airport or City:

Trip Planner

Search our weather history database for the weather conditions in past years. The results will help you decide how hot, cold, wet, or windy it might be!

Date:

Astronomy

Sep. 22, 2013 Rise Set
Actual Time 5:31 AM -0430 5:38 PM -0430
Civil Twilight 5:10 AM -0430 5:59 PM -0430
Nautical Twilight 4:46 AM -0430 6:23 PM -0430
Astronomical Twilight 4:22 AM -0430 6:48 PM -0430
Moon 8:10 PM -0430 (9/22) 8:06 AM -0430 (9/22)
Length of Visible Light 12h 48m
Length of Day
12h 06m
Waning Gibbous, 88% of the Moon is Illuminated
Sep 22
Waning Gibbous
Sep 26
Last Quarter
Oct 4
New
Oct 11
First Quarter
Oct 18
Full

Hourly Weather History & Observations

Time (-0430) Temp. Heat Index Dew Point Humidity Pressure Visibility Wind Dir Wind Speed Gust Speed Precip Events Conditions
6:30 AM 80.6 °F 88.1 °F 78.8 °F 94% 29.86 in - NNE 3.5 mph - N/A   Clear
7:30 AM 83 °F - 79 °F 83% 29.91 in 12 mi East 4.5 mph - -   Mostly Cloudy
7:30 AM 82.4 °F 92.4 °F 78.8 °F 89% 29.89 in 6.2 mi East 3.5 mph - N/A   Mostly Cloudy
8:30 AM 86.0 °F 96.9 °F 77.0 °F 74% 29.92 in 6.2 mi ESE 8.1 mph - N/A   Mostly Cloudy
9:30 AM 87.8 °F 95.6 °F 73.4 °F 62% 29.95 in 6.2 mi ESE 6.9 mph - N/A   Mostly Cloudy
10:30 AM 91.4 °F 95.4 °F 68.0 °F 46% 29.95 in 6.2 mi ESE 6.9 mph - N/A   Mostly Cloudy
11:30 AM 91.4 °F 93.2 °F 64.4 °F 41% 29.92 in 6.2 mi East 3.5 mph - N/A   Mostly Cloudy
12:30 PM 95.0 °F 96.0 °F 62.6 °F 34% 29.86 in 6.2 mi ESE 4.6 mph - N/A   Mostly Cloudy
1:30 PM 94 °F - 57 °F 20% 29.86 in 12 mi SE 4.5 mph - -   Mostly Cloudy
1:30 PM 93.2 °F 91.9 °F 57.2 °F 30% 29.83 in 6.2 mi SE 4.6 mph - N/A   Mostly Cloudy
2:30 PM 96.8 °F - 51.8 °F 22% 29.80 in 6.2 mi ESE 8.1 mph - N/A   Scattered Clouds
3:30 PM 96.8 °F - 51.8 °F 22% 29.80 in 6.2 mi ESE 8.1 mph - N/A   Scattered Clouds
4:30 PM 95.0 °F - 51.8 °F 23% 29.77 in 6.2 mi East 9.2 mph - N/A   Partly Cloudy
5:30 PM 87.8 °F 90.4 °F 66.2 °F 49% 29.77 in 6.2 mi ENE 11.5 mph - N/A   Partly Cloudy
6:30 PM 82.4 °F 88.2 °F 73.4 °F 74% 29.80 in - NNE 8.1 mph - N/A   Clear
7:30 PM 82 °F - 73 °F 67% 29.85 in 6 mi NNE 6.7 mph - -   Clear
7:30 PM 82.4 °F 88.2 °F 73.4 °F 74% 29.83 in - NNE 5.8 mph - N/A   Clear
8:30 PM 80.6 °F 86.2 °F 75.2 °F 84% 29.86 in - NNE 8.1 mph - N/A   Clear
9:30 PM 80.6 °F 87.1 °F 77.0 °F 89% 29.86 in - ENE 8.1 mph - N/A   Clear